Bettles Field, AK

9:17 PM AKST on February 24, 2017 (GMT -0900)
Bettles | | Change Station
Active Advisory: Winter Storm Warning

Elev 643 ft 66.92 °N, 151.53 °W | Updated 24 minutes ago

Overcast
Overcast
29 °F
Feels Like 21 °F
N
8
Wind Variable Wind from South

Today
High -- | Low -- °F
--% Chance of Precip.
Yesterday
High -- | Low -- °F
Precip. -- in
Pressure 30.12 in
Visibility 7.0 miles
Clouds Overcast 1700 ft
Windchill 21 °F
Dew Point 26 °F
Humidity 89%
Rainfall 0.16 in
Snow Depth Not available.
8:39 AM 6:00 PM
Waning Crescent, 2% visible
METAR PABT 250553Z 19007KT 7SM OVC017 M02/M03 A3006 RMK AO2 SNE19 SLP198 60001 931001 4/029 T10171033 11011 21061 51007
Pressure 30.12 in
Visibility 7.0 miles
Clouds Overcast 1700 ft
Windchill 21 °F
Dew Point 26 °F
Humidity 89%
Rainfall 0.16 in
Snow Depth Not available.
8:39 AM 6:00 PM
Waning Crescent, 2% visible
METAR PABT 250553Z 19007KT 7SM OVC017 M02/M03 A3006 RMK AO2 SNE19 SLP198 60001 931001 4/029 T10171033 11011 21061 51007

Get Your Daily Forecast Email!

Thanks for signing up!

Be on the lookout for a verification email in your inbox.

You'll start receiving the daily forecast at 8 AM.

×

10-Day Weather Forecast

Almanac

Astronomy

Feb. 24, 2017 Rise Set
Actual Time
Civil Twilight
Nautical Twilight
Astronomical Twilight
Moon
Length of Visible Light
Length of Day
Tomorrow will be .
, % of the Moon is Illuminated

Today's Extremes

State Highs State Lows

Community

WunderPhotos

Upload Photos

1,962,540 photos uploaded!

WunderBlog® & News

Nearby

Air Quality

  Air Quality AQ Index Pollutant
Not available.

Snow Depth

Station Depth Elevation

Earthquake Activity

City Distance Mag. Time & Date
Minimum magnitude displayed is 2.5.

Coastal Water Temperatures

Place Temperature

Stations

Nearby Weather Stations

Station Location Temp. Windchill Dew Point Humidity Wind Precip. Elev Updated Type
                   

Watches & Warnings

Winter Storm Warning
Issued: 3:45 PM AKST Feb. 24, 2017 – National Weather Service

... Winter Storm Warning remains in effect until 6 am akst
Sunday...

* snow... additional snow accumulations of 6 to 12 inches through
Sunday morning.

* Blowing snow... reducing visibility to one half mile or times
over higher terrain.

* Winds... southwest 10 to 20 mph with gusts to 35 mph over
elevated terrain.

* Timing... snow heavy at times will continue through Sunday
morning. Winds will increase and low visibility in blowing snow
will develop Saturday afternoon and persist into Sunday morning.

* Impacts... visibility may be greatly reduced. Travel and
outdoor activities will be difficult.

Precautionary/preparedness actions...

A Winter Storm Warning means one or more significant winter
weather hazards are occurring or expected.